Content
SEND FEEDBACK

Daily
Averages
Monthly
Summary
United States of America

UPI, GUAM


Home > North America > United States > Guam
Elevation: 53 feet     Latitude: 13 34N     Longitude: 144 55E

WEATHER
 
SELECT A DAY
Number of Records: 209,165;   Date Range: 1/1/95 - 8/30/14
 
SHARE

PRINT THIS DATA

[ ← Previous Day ]
WEATHER ALMANAC - JUNE 29, 2013
[ Next Day → ]
[ °C ]   °F
We're sorry. There is no daily almanac available for Upi, Guam on June 29, 2013.
WEATHER BY HOUR - JUNE 29, 2013
[ °C ]   °F
Local TimeTemperatureDewpointHumidityBarometerVisibilityWind DirectionWind SpeedGust SpeedPrecipitationEventsConditions
1:54 AM82.9 °F77.0 °F82 %29.85 in10.0 miEast (100°)5.8 mphClear
2:54 AM82.9 °F77.0 °F82 %29.85 in10.0 miCalmPartly Cloudy
3:54 AM82.0 °F77.0 °F85 %29.85 in10.0 miEast (80°)5.8 mph0.02 inScattered Clouds
4:54 AM82.0 °F77.0 °F85 %29.85 in10.0 miEast (100°)5.8 mph0.00 inScattered Clouds
5:54 AM82.9 °F77.0 °F82 %29.86 in10.0 miEast (90°)5.8 mphPartly Cloudy
6:54 AM82.0 °F75.9 °F82 %29.88 in10.0 miEast (90°)6.9 mphScattered Clouds
7:54 AM84.0 °F77.0 °F79 %29.88 in10.0 miEast (100°)6.9 mphPartly Cloudy
8:54 AM86.0 °F77.0 °F74 %29.88 in10.0 miEast (100°)10.4 mphPartly Cloudy
9:54 AM87.1 °F77.0 °F72 %29.89 in10.0 miEast (100°)11.5 mphScattered Clouds
10:21 AM87.8 °F75.2 °F66 %29.91 in10.0 miEast (100°)11.5 mph17.3 mphMostly Cloudy
10:47 AM87.8 °F77.0 °F70 %29.90 in10.0 miEast (90°)12.7 mphMostly Cloudy
10:54 AM87.1 °F77.0 °F72 %29.88 in10.0 miESE (110°)10.4 mphScattered Clouds
11:54 AM88.0 °F75.9 °F67 %29.87 in10.0 miESE (110°)8.1 mphMostly Cloudy
12:07 PM89.6 °F75.2 °F62 %29.89 in10.0 miEast (100°)11.5 mphScattered Clouds
12:43 PM87.8 °F77.0 °F70 %29.89 in10.0 miESE (110°)10.4 mphMostly Cloudy
12:54 PM88.0 °F77.0 °F70 %29.86 in10.0 miESE (110°)12.7 mph17.3 mphOvercast
1:14 PM87.8 °F77.0 °F70 %29.89 in10.0 miESE (110°)15.0 mphMostly Cloudy
1:54 PM88.0 °F75.9 °F67 %29.86 in10.0 miEast (90°)12.7 mph23.0 mphScattered Clouds
2:54 PM89.1 °F73.9 °F61 %29.84 in10.0 miESE (110°)9.2 mphPartly Cloudy
3:54 PM88.0 °F75.9 °F67 %29.83 in10.0 miESE (110°)12.7 mph18.4 mphMostly Cloudy
4:12 PM87.8 °F75.2 °F66 %29.85 in10.0 miESE (120°)6.9 mphMostly Cloudy
4:54 PM88.0 °F77.0 °F70 %29.84 in10.0 miEast (100°)10.4 mphPartly Cloudy
5:54 PM86.0 °F75.9 °F72 %29.85 in10.0 miESE (120°)6.9 mphMostly Cloudy
6:54 PM84.9 °F75.0 °F72 %29.87 in10.0 miEast (80°)8.1 mphPartly Cloudy
7:54 PM84.9 °F75.0 °F72 %29.88 in10.0 miEast (90°)8.1 mphScattered Clouds
8:54 PM84.9 °F75.9 °F74 %29.89 in10.0 miEast (90°)5.8 mphScattered Clouds
9:54 PM84.0 °F75.9 °F76 %29.90 in10.0 miEast (90°)5.8 mphPartly Cloudy
10:54 PM84.0 °F75.9 °F76 %29.91 in10.0 miEast (100°)5.8 mphPartly Cloudy
11:54 PM82.9 °F75.0 °F77 %29.89 in10.0 miEast (100°)3.5 mphPartly Cloudy
Hourly data recorded from PGUM, located miles away from Upi, Guam







STORIES FROM OUR PARTNERS